EW3043 Weather Reports


Display with metric or nautical units.
time (UTC)temp
F
wind
direction
speed
MPH
gust
MPH
rain 1hr
in
rain 24hr
in
rain mn
in
humidity
%
barometer
mb
20260902194652 73 252 1.0 4.0 0.00 0.00 0.00 11 1023.6
20260902194148 73 156 1.0 4.0 0.00 0.00 0.00 12 1023.6
20260902193705 72 138 1.0 7.0 0.00 0.00 0.00 12 1023.7
20260902193141 72 293 1.0 7.0 0.00 0.00 0.00 12 1023.7
20260902192639 72 279 1.0 5.0 0.00 0.00 0.00 11 1023.7
20260902192217 72 217 1.0 4.0 0.00 0.00 0.00 11 1023.7
20260902191654 72 277 1.0 5.0 0.00 0.00 0.00 11 1023.8
20260902191211 72 10 1.0 5.0 0.00 0.00 0.00 11 1023.8
20260902190647 72 245 2.0 5.0 0.00 0.00 0.00 11 1023.8
20260902190144 71 293 1.0 5.0 0.00 0.00 0.00 11 1023.8
20260902185704 71 307 1.0 7.0 0.00 0.00 0.00 11 1023.8
20260902185141 72 116 1.0 4.0 0.00 0.00 0.00 11 1023.9
20260902184659 72 282 1.0 6.0 0.00 0.00 0.00 11 1023.8
20260902184157 73 139 1.0 6.0 0.00 0.00 0.00 11 1023.8
20260902183653 72 228 1.0 4.0 0.00 0.00 0.00 11 1023.8
20260902183151 71 233 2.0 5.0 0.00 0.00 0.00 12 1023.8
20260902182700 71 238 1.0 4.0 0.00 0.00 0.00 11 1023.8
20260902182157 72 257 1.0 5.0 0.00 0.00 0.00 11 1023.8
20260902181716 71 277 1.0 5.0 0.00 0.00 0.00 12 1023.8
20260902181152 71 288 0.0 6.0 0.00 0.00 0.00 13 1023.8
20260902180649 70 290 1.0 6.0 0.00 0.00 0.00 12 1023.7
20260902180151 70 261 1.0 4.0 0.00 0.00 0.00 12 1023.8
20260902175650 71 276 1.0 3.0 0.00 0.00 0.00 12 1023.8
20260902175148 70 349 1.0 6.0 0.00 0.00 0.00 12 1023.9
20260902174646 70 252 2.0 6.0 0.00 0.00 0.00 13 1023.9
20260902174215 71 262 1.0 4.0 0.00 0.00 0.00 12 1023.9
20260902173652 70 77 0.0 5.0 0.00 0.00 0.00 14 1023.9
20260902173150 69 263 1.0 5.0 0.00 0.00 0.00 13 1023.9
20260902172647 69 262 0.0 3.0 0.00 0.00 0.00 13 1023.8
20260902172144 68 327 1.0 3.0 0.00 0.00 0.00 13 1023.9
20260902171701 68 266 0.0 2.0 0.00 0.00 0.00 14 1023.9
20260902171218 69 292 0.0 2.0 0.00 0.00 0.00 13 1023.8
20260902170656 68 155 0.0 2.0 0.00 0.00 0.00 14 1023.9
20260902170154 67 256 0.0 2.0 0.00 0.00 0.00 14 1023.8
20260902165713 66 257 0.0 2.0 0.00 0.00 0.00 14 1023.8
20260902165150 66 283 1.0 4.0 0.00 0.00 0.00 15 1023.8
20260902164648 66 300 1.0 4.0 0.00 0.00 0.00 14 1023.8
20260902164146 66 285 0.0 4.0 0.00 0.00 0.00 15 1023.8
20260902163644 65 225 1.0 4.0 0.00 0.00 0.00 15 1023.7
20260902163144 64 262 1.0 3.0 0.00 0.00 0.00 16 1023.6
20260902162641 64 262 1.0 5.0 0.00 0.00 0.00 15 1023.6
20260902162139 64 199 1.0 5.0 0.00 0.00 0.00 15 1023.6
20260902161657 63 250 0.0 3.0 0.00 0.00 0.00 15 1023.6
20260902161211 63 244 1.0 4.0 0.00 0.00 0.00 15 1023.5
20260902160647 63 304 0.0 4.0 0.00 0.00 0.00 15 1023.4
20260902160145 62 280 1.0 4.0 0.00 0.00 0.00 15 1023.4
20260902155649 61 240 0.0 10.0 0.00 0.00 0.00 15 1023.3
20260902155146 61 239 1.0 10.0 0.00 0.00 0.00 15 1023.2
20260902154644 60 244 2.0 6.0 0.00 0.00 0.00 15 1023.2
20260902154201 60 193 1.0 13.0 0.00 0.00 0.00 16 1023.2
20260902153658 60 270 2.0 13.0 0.00 0.00 0.00 16 1023.1
20260902153216 59 245 1.0 10.0 0.00 0.00 0.00 16 1023.1
20260902152714 59 207 2.0 10.0 0.00 0.00 0.00 17 1023.0
20260902152211 59 239 2.0 7.0 0.00 0.00 0.00 17 1023.0
20260902151647 58 262 2.0 7.0 0.00 0.00 0.00 17 1023.0
20260902151145 58 316 1.0 5.0 0.00 0.00 0.00 17 1023.0
20260902150642 57 305 0.0 3.0 0.00 0.00 0.00 18 1022.9
20260902150140 57 302 0.0 4.0 0.00 0.00 0.00 19 1022.8
20260902145640 56 255 1.0 8.0 0.00 0.00 0.00 19 1022.9
20260902145158 56 152 2.0 8.0 0.00 0.00 0.00 19 1022.8
20260902144656 56 248 1.0 4.0 0.00 0.00 0.00 20 1022.9
20260902144215 55 174 0.0 4.0 0.00 0.00 0.00 21 1022.8
20260902143651 55 255 1.0 5.0 0.00 0.00 0.00 21 1022.7
20260902143149 54 125 1.0 5.0 0.00 0.00 0.00 21 1022.7
20260902142646 53 19 1.0 5.0 0.00 0.00 0.00 23 1022.6
20260902142145 53 305 1.0 4.0 0.00 0.00 0.00 25 1022.6
20260902141648 52 136 0.0 4.0 0.00 0.00 0.00 26 1022.6
20260902141145 51 243 0.0 3.0 0.00 0.00 0.00 29 1022.5
20260902140643 51 139 0.0 3.0 0.00 0.00 0.00 31 1022.4
20260902140141 50 1 0.0 1.0 0.00 0.00 0.00 33 1022.4
20260902135721 49 302 0.0 3.0 0.00 0.00 0.00 34 1022.4
20260902135159 49 250 0.0 3.0 0.00 0.00 0.00 35 1022.2
20260902134659 49 41 1.0 3.0 0.00 0.00 0.00 35 1022.2
20260902134149 48 263 0.0 1.0 0.00 0.00 0.00 35 1022.1
20260902133647 48 305 0.0 4.0 0.00 0.00 0.00 36 1022.0
20260902133144 47 285 0.0 2.0 0.00 0.00 0.00 36 1022.1
20260902132642 47 39 0.0 1.0 0.00 0.00 0.00 38 1022.1
20260902132200 47 342 0.0 2.0 0.00 0.00 0.00 37 1022.0
20260902131657 47 46 0.0 2.0 0.00 0.00 0.00 36 1021.9
20260902131155 47 21 0.0 1.0 0.00 0.00 0.00 35 1021.9
20260902130649 47 285 0.0 1.0 0.00 0.00 0.00 35 1021.8
20260902130147 47 32 0.0 1.0 0.00 0.00 0.00 33 1021.8
20260902125646 47 19 0.0 1.0 0.00 0.00 0.00 34 1021.8
20260902125144 47 58 0.0 1.0 0.00 0.00 0.00 35 1021.8
20260902124642 47 51 0.0 1.0 0.00 0.00 0.00 36 1021.8
20260902124221 47 278 0.0 1.0 0.00 0.00 0.00 36 1021.9
20260902123657 47 312 0.0 1.0 0.00 0.00 0.00 36 1021.9
20260902123155 47 158 0.0 2.0 0.00 0.00 0.00 36 1021.9
20260902122711 47 51 0.0 1.0 0.00 0.00 0.00 37 1021.9
20260902122152 47 65 0.0 1.0 0.00 0.00 0.00 36 1021.9
20260902121649 47 34 0.0 1.0 0.00 0.00 0.00 36 1021.9
20260902121146 48 34 0.0 2.0 0.00 0.00 0.00 36 1021.9
20260902120646 48 302 0.0 2.0 0.00 0.00 0.00 36 1021.9
20260902120146 48 237 0.0 2.0 0.00 0.00 0.00 36 1022.0
20260902115645 47 251 0.0 2.0 0.00 0.00 0.00 37 1022.1
20260902115203 47 260 0.0 1.0 0.00 0.00 0.00 36 1022.1
20260902114700 47 255 0.0 1.0 0.00 0.00 0.00 36 1022.0
20260902114157 47 252 0.0 1.0 0.00 0.00 0.00 35 1022.0
20260902113655 47 252 0.0 1.0 0.00 0.00 0.00 34 1022.1
20260902113213 47 37 0.0 2.0 0.00 0.00 0.00 34 1021.9
20260902112649 47 42 0.0 2.0 0.00 0.00 0.00 33 1021.9
20260902112146 47 321 0.0 2.0 0.00 0.00 0.00 33 1021.9
20260902111644 47 33 0.0 2.0 0.00 0.00 0.00 32 1022.0
20260902111202 47 242 0.0 1.0 0.00 0.00 0.00 32 1022.1
20260902110658 47 39 0.0 1.0 0.00 0.00 0.00 34 1022.0
20260902110156 47 279 0.0 0.0 0.00 0.00 0.00 33 1022.0
20260902105655 48 264 0.0 0.0 0.00 0.00 0.00 32 1022.1
20260902105157 48 264 0.0 1.0 0.00 0.00 0.00 32 1022.0
20260902104655 48 272 0.0 1.0 0.00 0.00 0.00 32 1022.2
20260902104152 48 266 0.0 1.0 0.00 0.00 0.00 31 1022.1
20260902103649 48 264 0.0 1.0 0.00 0.00 0.00 31 1022.1
20260902103208 48 264 0.0 1.0 0.00 0.00 0.00 31 1022.2
20260902102644 48 252 0.0 1.0 0.00 0.00 0.00 32 1022.2
20260902102202 48 287 0.0 1.0 0.00 0.00 0.00 32 1022.2
20260902101659 48 287 0.0 1.0 0.00 0.00 0.00 32 1022.2
20260902101157 48 234 0.0 1.0 0.00 0.00 0.00 33 1022.1
20260902100656 48 262 0.0 1.0 0.00 0.00 0.00 33 1022.2
20260902100153 48 252 0.0 1.0 0.00 0.00 0.00 33 1022.2
20260902095653 48 65 0.0 1.0 0.00 0.00 0.00 33 1022.1
20260902095150 48 30 0.0 1.0 0.00 0.00 0.00 33 1022.1
20260902094647 48 266 0.0 2.0 0.00 0.00 0.00 33 1022.2
20260902094145 48 263 0.0 2.0 0.00 0.00 0.00 34 1022.3
20260902093648 48 271 0.0 1.0 0.00 0.00 0.00 34 1022.3
20260902093145 48 34 0.0 1.0 0.00 0.00 0.00 34 1022.1
20260902092644 48 282 0.0 2.0 0.00 0.00 0.00 35 1022.2
20260902092202 48 42 0.0 2.0 0.00 0.00 0.00 35 1022.3
20260902091720 48 262 0.0 1.0 0.00 0.00 0.00 35 1022.3
20260902091157 48 89 0.0 1.0 0.00 0.00 0.00 36 1022.3
20260902090715 48 125 0.0 1.0 0.00 0.00 0.00 36 1022.3
20260902090151 48 274 0.0 1.0 0.00 0.00 0.00 37 1022.3
20260902085650 48 108 0.0 1.0 0.00 0.00 0.00 38 1022.4
20260902085143 48 115 0.0 1.0 0.00 0.00 0.00 39 1022.4
20260902084701 48 48 0.0 1.0 0.00 0.00 0.00 39 1022.4
20260902084159 48 126 0.0 1.0 0.00 0.00 0.00 39 1022.5
20260902083657 48 40 0.0 1.0 0.00 0.00 0.00 41 1022.6
20260902083155 48 41 0.0 1.0 0.00 0.00 0.00 40 1022.5
20260902082652 47 26 0.0 1.0 0.00 0.00 0.00 42 1022.6
20260902082149 48 16 0.0 1.0 0.00 0.00 0.00 42 1022.5
20260902081647 48 46 0.0 1.0 0.00 0.00 0.00 43 1022.6
20260902081148 47 208 0.0 1.0 0.00 0.00 0.00 43 1022.5
20260902080707 48 101 0.0 1.0 0.00 0.00 0.00 44 1022.5
20260902080143 48 7 0.0 1.0 0.00 0.00 0.00 44 1022.5
20260902075702 47 13 0.0 1.0 0.00 0.00 0.00 46 1022.4
20260902075159 47 112 0.0 1.0 0.00 0.00 0.00 47 1022.4
20260902074657 47 338 0.0 1.0 0.00 0.00 0.00 46 1022.3
20260902074153 47 24 0.0 1.0 0.00 0.00 0.00 46 1022.2
20260902073652 47 357 0.0 1.0 0.00 0.00 0.00 46 1022.2
20260902073150 47 356 0.0 0.0 0.00 0.00 0.00 47 1022.2
20260902072647 47 356 0.0 0.0 0.00 0.00 0.00 48 1022.3
20260902072206 48 356 0.0 0.0 0.00 0.00 0.00 47 1022.3
20260902071722 47 36 0.0 0.0 0.00 0.00 0.00 49 1022.4
20260902071219 47 142 0.0 0.0 0.00 0.00 0.00 50 1022.4
20260902070656 47 142 0.0 1.0 0.00 0.00 0.00 50 1022.4
20260902070155 47 142 0.0 1.0 0.00 0.00 0.00 50 1022.4
20260902065654 47 141 0.0 1.0 0.00 0.00 0.00 51 1022.5
20260902065148 47 121 0.0 1.0 0.00 0.00 0.00 50 1022.5
20260902064646 48 233 0.0 1.0 0.00 0.00 0.00 51 1022.4
20260902064146 48 268 0.0 1.0 0.00 0.00 0.00 51 1022.5
20260902063647 48 267 0.0 0.0 0.00 0.00 0.00 52 1022.5
20260902063145 47 267 0.0 0.0 0.00 0.00 0.00 52 1022.5
20260902062700 48 266 0.0 0.0 0.00 0.00 0.00 52 1022.6
20260902062158 48 267 0.0 0.0 0.00 0.00 0.00 52 1022.6
20260902061151 47 266 0.0 1.0 0.00 0.00 0.00 53 1022.6
20260902060646 47 239 0.0 0.0 0.00 0.00 0.00 53 1022.6
20260902060144 47 238 0.0 1.0 0.00 0.00 0.00 53 1022.7
20260902055702 47 239 0.0 1.0 0.00 0.00 0.00 53 1022.6
20260902055159 47 239 0.0 0.0 0.00 0.00 0.00 53 1022.7
20260902054657 48 239 0.0 0.0 0.00 0.00 0.00 53 1022.8
20260902054156 48 239 0.0 0.0 0.00 0.00 0.00 54 1022.8
20260902053655 47 239 0.0 0.0 0.00 0.00 0.00 55 1022.8
20260902053152 47 239 0.0 0.0 0.00 0.00 0.00 56 1022.9
20260902052730 47 239 0.0 0.0 0.00 0.00 0.00 57 1023.0
20260902052203 48 239 0.0 1.0 0.00 0.00 0.00 57 1023.0
20260902051702 48 239 0.0 1.0 0.00 0.00 0.00 58 1023.1
20260902051200 48 239 0.0 1.0 0.00 0.00 0.00 58 1023.1
20260902050701 48 239 0.0 1.0 0.00 0.00 0.00 59 1023.0
20260902050159 48 239 0.0 0.0 0.00 0.00 0.00 60 1023.0
20260902045658 48 239 0.0 0.0 0.00 0.00 0.00 60 1023.0
20260902045155 48 239 0.0 0.0 0.00 0.00 0.00 62 1023.0
20260902044652 48 239 0.0 0.0 0.00 0.00 0.00 62 1023.1
20260902044150 48 239 0.0 1.0 0.00 0.00 0.00 62 1023.1
20260902043648 48 239 0.0 1.0 0.00 0.00 0.00 62 1023.1
20260902043145 48 243 0.0 0.0 0.00 0.00 0.00 62 1022.9
20260902042724 49 243 0.0 0.0 0.00 0.00 0.00 62 1022.9
20260902042202 49 243 0.0 1.0 0.00 0.00 0.00 63 1022.9
20260902041659 49 244 0.0 1.0 0.00 0.00 0.00 63 1022.8
20260902041155 49 243 0.0 1.0 0.00 0.00 0.00 63 1022.7
20260902040714 49 243 0.0 1.0 0.00 0.00 0.00 62 1022.7
20260902040149 49 243 0.0 0.0 0.00 0.00 0.00 62 1022.7
20260902035648 50 243 0.0 0.0 0.00 0.00 0.00 60 1022.6
20260902035147 50 243 0.0 0.0 0.00 0.00 0.00 60 1022.5
20260902034648 50 243 0.0 0.0 0.00 0.00 0.00 60 1022.4
20260902034208 51 243 0.0 1.0 0.00 0.00 0.00 59 1022.4
20260902033704 51 243 0.0 1.0 0.00 0.00 0.00 59 1022.3
20260902033223 51 243 0.0 1.0 0.00 0.00 0.00 60 1022.4
20260902032655 51 243 0.0 1.0 0.00 0.00 0.00 60 1022.3
20260902032213 51 243 0.0 1.0 0.00 0.00 0.00 59 1022.2
20260902031650 51 243 0.0 1.0 0.00 0.00 0.00 60 1022.2
20260902031148 51 117 0.0 1.0 0.00 0.00 0.00 58 1022.1
20260902030645 51 117 0.0 0.0 0.00 0.00 0.00 58 1022.0
20260902030203 51 115 0.0 1.0 0.00 0.00 0.00 57 1021.9
20260902025702 52 49 0.0 1.0 0.00 0.00 0.00 57 1021.9
20260902025159 52 49 0.0 2.0 0.00 0.00 0.00 55 1021.9
20260902024657 52 49 0.0 2.0 0.00 0.00 0.00 55 1021.8
20260902024155 53 65 0.0 2.0 0.00 0.00 0.00 54 1021.7
20260902023713 53 138 0.0 3.0 0.00 0.00 0.00 54 1021.7
20260902023209 53 11 0.0 3.0 0.00 0.00 0.00 53 1021.8
20260902022646 53 11 0.0 3.0 0.00 0.00 0.00 52 1021.8
20260902022204 54 61 0.0 3.0 0.00 0.00 0.00 51 1021.8
20260902021702 54 248 1.0 4.0 0.00 0.00 0.00 50 1021.7
20260902021200 55 293 0.0 4.0 0.00 0.00 0.00 49 1021.6
20260902020657 55 226 0.0 3.0 0.00 0.00 0.00 49 1021.7
20260902020159 55 231 1.0 3.0 0.00 0.00 0.00 48 1021.6
20260902015658 56 176 0.0 2.0 0.00 0.00 0.00 47 1021.7
20260902015155 56 256 0.0 5.0 0.00 0.00 0.00 47 1021.6
20260902014653 56 145 1.0 5.0 0.00 0.00 0.00 46 1021.6
20260902014152 56 249 1.0 6.0 0.00 0.00 0.00 46 1021.7
20260902013710 57 131 1.0 6.0 0.00 0.00 0.00 46 1021.7
20260902013207 57 274 1.0 3.0 0.00 0.00 0.00 46 1021.6
20260902012724 57 311 1.0 2.0 0.00 0.00 0.00 46 1021.7
20260902012221 58 284 0.0 4.0 0.00 0.00 0.00 46 1021.6
20260902011657 58 256 2.0 6.0 0.00 0.00 0.00 46 1021.7
20260902011155 58 294 1.0 6.0 0.00 0.00 0.00 45 1021.7
20260902010653 59 286 2.0 6.0 0.00 0.00 0.00 45 1021.7
20260902010150 59 240 1.0 6.0 0.00 0.00 0.00 43 1021.9
20260902005649 60 228 2.0 6.0 0.00 0.00 0.00 41 1021.9
20260902005147 60 255 1.0 5.0 0.00 0.00 0.00 39 1021.9
20260902004704 60 254 1.0 5.0 0.00 0.00 0.00 38 1021.9
20260902004202 61 272 2.0 5.0 0.00 0.00 0.00 37 1022.0
20260902003659 61 108 1.0 5.0 0.00 0.00 0.00 36 1021.9
20260902003218 62 224 1.0 3.0 0.00 0.00 0.00 34 1021.9
20260902002654 62 127 1.0 4.0 0.00 0.00 0.00 33 1022.0
20260902002154 63 201 1.0 6.0 0.00 0.00 0.00 33 1022.0
20260902001652 63 283 1.0 6.0 0.00 0.00 0.00 31 1022.1
20260902001149 64 282 1.0 5.0 0.00 0.00 0.00 31 1022.1
20260902000647 64 235 1.0 5.0 0.00 0.00 0.00 31 1022.0
20260902000226 64 293 0.0 5.0 0.00 0.00 0.00 31 1021.9
20260901235702 65 282 1.0 5.0 0.00 0.00 0.00 30 1022.1
20260901235200 65 265 1.0 4.0 0.00 0.00 0.00 30 1022.1
20260901234658 65 292 1.0 4.0 0.00 0.00 0.00 28 1022.1
20260901234216 65 306 1.0 4.0 0.00 0.00 0.00 28 1022.0
20260901233653 65 245 1.0 4.0 0.00 0.00 0.00 29 1022.0
20260901233149 65 274 1.0 7.0 0.00 0.00 0.00 29 1022.1
20260901232648 65 248 1.0 8.0 0.00 0.00 0.00 29 1022.1
20260901232226 66 223 2.0 8.0 0.00 0.00 0.00 29 1022.2
20260901231703 66 238 1.0 6.0 0.00 0.00 0.00 28 1022.2
20260901231221 66 256 2.0 6.0 0.00 0.00 0.00 28 1022.3
20260901230658 66 276 2.0 6.0 0.00 0.00 0.00 27 1022.3
20260901230155 66 275 1.0 6.0 0.00 0.00 0.00 27 1022.4
20260901225655 66 237 1.0 5.0 0.00 0.00 0.00 26 1022.4
20260901225150 66 299 1.0 8.0 0.00 0.00 0.00 26 1022.4
20260901224651 66 248 2.0 8.0 0.00 0.00 0.00 25 1022.4
20260901224150 67 238 2.0 5.0 0.00 0.00 0.00 24 1022.5
20260901223218 67 281 1.0 4.0 0.00 0.00 0.00 24 1022.6
20260901222715 67 213 2.0 4.0 0.00 0.00 0.00 24 1022.5
20260901222150 67 255 2.0 6.0 0.00 0.00 0.00 24 1022.6
20260901221648 67 229 1.0 5.0 0.00 0.00 0.00 24 1022.6
20260901221206 67 268 2.0 5.0 0.00 0.00 0.00 24 1022.7
20260901220725 67 268 1.0 5.0 0.00 0.00 0.00 23 1022.6
20260901220202 68 181 2.0 5.0 0.00 0.00 0.00 23 1022.6
20260901215700 68 255 1.0 6.0 0.00 0.00 0.00 23 1022.7
20260901215158 68 289 1.0 6.0 0.00 0.00 0.00 23 1022.7
20260901214657 68 277 1.0 5.0 0.00 0.00 0.00 23 1022.7
20260901214156 69 242 2.0 6.0 0.00 0.00 0.00 23 1022.7
20260901213654 69 266 2.0 6.0 0.00 0.00 0.00 22 1022.7
20260901213150 69 294 1.0 5.0 0.00 0.00 0.00 22 1022.6
20260901212647 70 273 1.0 6.0 0.00 0.00 0.00 22 1022.6
20260901212202 70 312 2.0 6.0 0.00 0.00 0.00 21 1022.8
20260901211706 69 284 1.0 5.0 0.00 0.00 0.00 23 1022.8
20260901211224 69 288 2.0 6.0 0.00 0.00 0.00 23 1022.9
20260901210658 70 213 1.0 6.0 0.00 0.00 0.00 23 1022.8
20260901210156 70 276 1.0 4.0 0.00 0.00 0.00 23 1022.9
20260901205653 70 291 1.0 10.0 0.00 0.00 0.00 23 1022.8
20260901205210 70 245 1.0 6.0 0.00 0.00 0.00 23 1022.8
20260901204706 71 236 1.0 6.0 0.00 0.00 0.00 22 1022.8
20260901204204 70 238 2.0 6.0 0.00 0.00 0.00 21 1022.8
20260901203703 70 311 2.0 6.0 0.00 0.00 0.00 22 1022.8
20260901203200 70 279 1.0 4.0 0.00 0.00 0.00 23 1023.2
20260901202658 70 240 1.0 6.0 0.00 0.00 0.00 22 1023.1
20260901202155 70 92 2.0 6.0 0.00 0.00 0.00 22 1023.1
20260901201652 70 131 1.0 10.0 0.00 0.00 0.00 22 1023.1
20260901201150 70 345 2.0 10.0 0.00 0.00 0.00 22 1023.3
20260901200707 71 299 2.0 5.0 0.00 0.00 0.00 20 1023.3
20260901200205 71 275 1.0 4.0 0.00 0.00 0.00 20 1023.3
20260901195703 70 258 1.0 4.0 0.00 0.00 0.00 19 1023.1
20260901195205 70 207 2.0 5.0 0.00 0.00 0.00 21 1023.3